[[{"header":{"parameterUnit":"m.s-1","parameterCategory":1,"la1":30.2991,"la2":30.254,"lo1":-89.0895,"lo2":-89.0444,"dy":0.0017,"dx":0.0017,"nx":28,"ny":28,"refTime":"2024-05-20T09:00:00:Z","depth":0,"parameterNumber":2,"parameterNumberName":"U-component_of_WINDS"},"data":[0,0,0,0,0,0,0,0,0,0,0,0,0,0,0,0,0,0,0,0,0,0,0,0,0,0,0,0,0,0,0,0,0,0,0,0,0,0,0,0,0,0,0,0,0,0,0,0,0,0,0,0,0,0,0,0,0,0,0.3492,0.3493,0,0.3504,0.3504,0.3504,0.3478,0.3477,0.3476,0.3475,0.3491,0.3492,0.3493,0,0,0,0,0,0,0,0,0,0,0,0,0,0.345,0.3451,0.3492,0.3493,0.3493,0.3504,0.3504,0.3505,0.3478,0.3477,0.3476,0.3475,0.349,0.3492,0.3493,0,0,0,0,0,0,0,0,0,0,0,0,0,0.3466,0.3451,0.3492,0.3481,0.348,0.3504,0.3504,0.3505,0.3478,0.3477,0.3476,0.3475,0.349,0.3492,0.3493,0.353,0,0,0.3499,0.35,0,0,0,0,0,0,0,0,0.3465,0.3467,0.3482,0.3482,0.3481,0.3488,0.3495,0.3513,0.3479,0.3479,0.3475,0.3474,0.3491,0.3493,0.3498,0.3531,0.3532,0.3499,0.35,0.3501,0.3501,0,0,0,0,0,0,0,0.3464,0.3467,0.3497,0.3483,0.3482,0.3476,0.3477,0.3498,0.3492,0.3479,0.3477,0.3479,0.349,0.3496,0.3498,0.3532,0.3499,0.3501,0.3502,0.3502,0.3596,0.3597,0,0,0,0,0,0,0.3464,0.3466,0.3497,0.3498,0.3469,0.3478,0.3479,0.3487,0.3492,0.3491,0.348,0.3477,0.3494,0.3496,0.3498,0.3542,0.3501,0.3503,0.3504,0.3595,0.3596,0.3598,0,0,0,0,0,0,0.3463,0.3467,0.3496,0.3481,0.3484,0.348,0.349,0.3488,0.3494,0.3492,0.3492,0.3486,0.3493,0.3496,0.3522,0.3542,0.3503,0.3505,0.3593,0.3595,0.3597,0.3629,0,0,0,0,0,0,0.3462,0.3467,0.348,0.3482,0.3485,0.3519,0.3491,0.3489,0.3497,0.3494,0.3499,0.3498,0.3492,0.352,0.3524,0.3544,0.3506,0.3591,0.3594,0.3597,0.3626,0.3632,0.3637,0,0,0,0,0,0.346,0.3489,0.3481,0.3485,0.3502,0.352,0.3523,0.3514,0.3498,0.3512,0.3511,0.3498,0.3539,0.3523,0.3527,0.3548,0.359,0.3593,0.3596,0.3624,0.3631,0.3637,0,0,0,0,0,0,0.3491,0.3489,0.348,0.351,0.3515,0.3516,0.3533,0.3522,0.3533,0.3529,0.3519,0.3521,0.3549,0.3551,0.3533,0.3584,0.3562,0.3566,0.3582,0.3588,0.3594,0.3592,0.3508,0,0,0,0,0,0.3501,0.3515,0.3513,0.354,0.3543,0.3538,0.3545,0.3538,0.3544,0.3546,0.3548,0.3555,0.3569,0.3579,0.3592,0.3627,0.3628,0.3643,0.3649,0.3653,0.3657,0.3676,0.3683,0.3608,0.3608,0.3608,0,0,0.3522,0.3523,0.3533,0.3546,0.355,0.3565,0.354,0.3558,0.357,0.355,0.3574,0.3575,0.3582,0.3613,0.3627,0.3616,0.3678,0.3657,0.3661,0.3662,0.368,0.3687,0.3693,0.361,0.361,0.361,0,0,0.3569,0.3571,0.3593,0.3597,0.3602,0.3598,0.3603,0.3606,0.3605,0.363,0.3615,0.363,0.3655,0.366,0.3666,0.3715,0.3704,0.372,0.3748,0.3767,0.3772,0.3778,0.3795,0.3802,0.3724,0.3724,0.3724,0,0.3595,0.3617,0.3606,0.3625,0.3631,0.3613,0.3636,0.3641,0.365,0.3656,0.3643,0.3674,0.3677,0.3709,0.3721,0.3727,0.3733,0.3719,0.3772,0.3777,0.3782,0.3799,0.3805,0.3726,0.3726,0.3726,0.3725,0,0.3649,0.3664,0.3682,0.3691,0.3699,0.372,0.3713,0.3723,0.3716,0.3713,0.3739,0.3742,0.3756,0.3763,0.3756,0.3794,0.3787,0.3774,0.3751,0.3791,0.3807,0.3813,0.3729,0.3728,0.3727,0.3727,0,0,0.3714,0.3717,0.3723,0.3727,0.3731,0.3744,0.3764,0.3777,0.3786,0.3793,0.381,0.3832,0.3819,0.3827,0.382,0.3836,0.3875,0.3821,0.3821,0.3831,0.3918,0.3928,0.3935,0.3867,0.3869,0.387,0.3917,0,0.376,0.3794,0.3785,0.3819,0.3834,0.3817,0.3834,0.384,0.3838,0.3851,0.385,0.3866,0.3848,0.3852,0.3867,0.3867,0.3892,0.3864,0.3884,0.3885,0.3883,0.3943,0.3954,0.3999,0.3923,0.3924,0.3925,0,0.3818,0.3827,0.3862,0.3864,0.387,0.3886,0.3896,0.3909,0.3915,0.3913,0.3921,0.3911,0.3932,0.391,0.3939,0.392,0.3928,0.3929,0.3931,0.3932,0.3907,0.3947,0.4013,0.4019,0.3934,0.3933,0.3933,0,0.3862,0.3883,0.3907,0.391,0.3913,0.3925,0.3927,0.3932,0.394,0.395,0.3955,0.3967,0.3974,0.3985,0.398,0.3964,0.401,0.3987,0.401,0.401,0.402,0.402,0.4089,0.4026,0.4026,0.4025,0.4025,0,0.3914,0.3937,0.3927,0.3941,0.3966,0.3956,0.3981,0.3981,0.3985,0.4,0.3987,0.4002,0.3993,0.4008,0.4004,0.4029,0.4033,0.4032,0.4031,0.4033,0.4033,0.4038,0.4035,0.4027,0.4027,0.4026,0.4026,0,0.3968,0.3962,0.3987,0.3987,0.3988,0.4006,0.4007,0.4021,0.4019,0.4038,0.4042,0.4039,0.4055,0.4051,0.4069,0.4066,0.4098,0.4093,0.4096,0.4094,0.4117,0.4115,0.4192,0.4201,0.4132,0.4133,0.4134,0,0.4001,0.4018,0.402,0.4028,0.4031,0.4045,0.4053,0.4045,0.4054,0.4062,0.4075,0.409,0.4101,0.4128,0.4128,0.4142,0.4137,0.4163,0.4139,0.4141,0.4138,0.4137,0.4139,0.4168,0.4169,0.4169,0.417,0,0.4061,0.4057,0.4068,0.4079,0.4089,0.4097,0.4104,0.4112,0.4104,0.4115,0.4131,0.414,0.4158,0.4173,0.4186,0.4189,0.4179,0.4177,0.4183,0.4186,0.4187,0.4187,0.4109,0.4176,0.4175,0.4175,0.4174,0.4174,0.4105,0.4119,0.4123,0.4136,0.414,0.4147,0.416,0.416,0.4172,0.4185,0.418,0.4198,0.4205,0.4221,0.4226,0.4241,0.4231,0.424,0.4242,0.4244,0.4247,0.4185,0.4243,0.4243,0.4243,0.4243,0.4243,0,0.4164,0.4166,0.4178,0.4188,0.4199,0.4187,0.4194,0.4204,0.422,0.4226,0.4238,0.4256,0.4271,0.4272,0.4287,0.4299,0.4294,0.4303,0.4302,0.4303,0.4255,0.4248,0.4306,0.4306,0.4306,0.4306,0.4306,0.4306,0.4196,0.4219,0.4216,0.4241,0.4243,0.426,0.4265,0.4272,0.4277,0.4298,0.431,0.431,0.4315,0.4329,0.4343,0.4343,0.4349,0.4359,0.4357,0.4313,0.4306,0.43,0.4294,0.436,0.4361,0.4404,0.4405,0.4405]},{"header":{"parameterUnit":"m.s-1","parameterCategory":1,"la1":30.2991,"la2":30.254,"lo1":-89.0895,"lo2":-89.0444,"dy":0.0017,"dx":0.0017,"nx":28,"ny":28,"refTime":"2024-05-20T09:00:00:Z","depth":0,"parameterNumber":3,"parameterNumberName":"V-component_of_WINDS"},"data":[0,0,0,0,0,0,0,0,0,0,0,0,0,0,0,0,0,0,0,0,0,0,0,0,0,0,0,0,0,0,0,0,0,0,0,0,0,0,0,0,0,0,0,0,0,0,0,0,0,0,0,0,0,0,0,0,0,0,1.147,1.1468,0,1.1244,1.1242,1.1239,1.1083,1.1082,1.1081,1.1079,1.0847,1.0842,1.0837,0,0,0,0,0,0,0,0,0,0,0,0,0,1.1765,1.1761,1.147,1.1467,1.1464,1.1245,1.1242,1.1238,1.1083,1.1082,1.108,1.1079,1.0848,1.0842,1.0836,0,0,0,0,0,0,0,0,0,0,0,0,0,1.1598,1.1759,1.1471,1.1361,1.1348,1.1245,1.1241,1.1238,1.1083,1.1082,1.108,1.1078,1.085,1.0843,1.0835,1.0823,0,0,1.0812,1.0809,0,0,0,0,0,0,0,0,1.1608,1.1588,1.138,1.1368,1.1354,1.119,1.126,1.1099,1.1084,1.1184,1.1079,1.1077,1.0962,1.0945,1.0907,1.0812,1.0802,1.0811,1.0807,1.0803,1.0801,0,0,0,0,0,0,0,1.162,1.1596,1.1381,1.1377,1.1361,1.1322,1.1296,1.1229,1.1086,1.1175,1.1163,1.1139,1.0955,1.0915,1.09,1.0799,1.0812,1.0805,1.08,1.0797,1.0683,1.0684,0,0,0,0,0,0,1.1649,1.1607,1.1388,1.1374,1.1479,1.1318,1.1289,1.1244,1.1086,1.106,1.114,1.1132,1.0928,1.0909,1.0891,1.0866,1.0804,1.0796,1.0792,1.0681,1.0683,1.0685,0,0,0,0,0,0,1.1656,1.1631,1.1397,1.1487,1.1454,1.1315,1.1266,1.1241,1.12,1.106,1.1033,1.1126,1.0926,1.0902,1.0841,1.0855,1.0793,1.0786,1.0679,1.0682,1.0684,1.0816,0,0,0,0,0,0,1.1665,1.1634,1.1628,1.1488,1.145,1.1351,1.1267,1.1238,1.1188,1.1175,1.1039,1.1014,1.0923,1.0854,1.0834,1.0844,1.078,1.0677,1.068,1.0683,1.0809,1.0822,1.0833,0,0,0,0,0,1.1676,1.1674,1.1629,1.1603,1.144,1.1353,1.1331,1.1226,1.1189,1.1182,1.1092,1.1019,1.0858,1.0849,1.0825,1.0833,1.0676,1.068,1.0683,1.0804,1.082,1.0833,0,0,0,0,0,0,1.1819,1.1654,1.1602,1.1555,1.1469,1.1326,1.1314,1.1246,1.1168,1.1159,1.1032,1.1003,1.0955,1.0888,1.0881,1.0813,1.0758,1.0757,1.0858,1.0872,1.0883,1.09,1.0774,0,0,0,0,0,1.1846,1.1789,1.1647,1.1619,1.1579,1.1455,1.1412,1.1339,1.1245,1.1208,1.1113,1.1024,1.0953,1.0909,1.0836,1.08,1.0767,1.0793,1.0805,1.0816,1.0816,1.0791,1.08,1.0696,1.0696,1.0696,0,0,1.1899,1.1801,1.1773,1.1646,1.157,1.1514,1.1425,1.1369,1.1325,1.1199,1.1135,1.1063,1.0956,1.0907,1.0881,1.0849,1.0838,1.082,1.083,1.0823,1.0795,1.0805,1.0814,1.0699,1.0698,1.0698,0,0,1.1966,1.1888,1.1855,1.1782,1.167,1.1587,1.158,1.1448,1.1395,1.133,1.1234,1.118,1.1061,1.0988,1.0935,1.0977,1.0906,1.0957,1.1018,1.0995,1.1003,1.101,1.1023,1.103,1.0957,1.0958,1.0958,0,1.2046,1.1958,1.1847,1.1797,1.1743,1.1627,1.1593,1.1528,1.1398,1.1363,1.133,1.1178,1.1097,1.103,1.104,1.1002,1.0988,1.097,1.1011,1.1017,1.1021,1.1033,1.1038,1.0964,1.0964,1.0963,1.0962,0,1.2061,1.2001,1.1989,1.1866,1.1811,1.177,1.1653,1.161,1.1543,1.1464,1.1398,1.1298,1.1202,1.1181,1.1114,1.1104,1.1088,1.1035,1.0977,1.104,1.1048,1.1052,1.0974,1.0972,1.097,1.0968,0,0,1.2211,1.2029,1.2026,1.1969,1.1837,1.1788,1.1741,1.1648,1.1614,1.1529,1.1485,1.1388,1.1338,1.1279,1.1202,1.1183,1.1221,1.1132,1.1127,1.1151,1.1202,1.1242,1.1249,1.1174,1.1175,1.1175,1.1211,0,1.2257,1.2167,1.2067,1.2011,1.1953,1.1843,1.1802,1.1717,1.1642,1.1582,1.1499,1.1432,1.1372,1.1335,1.1311,1.1222,1.1229,1.1218,1.1132,1.113,1.1161,1.1253,1.1294,1.1333,1.1214,1.1214,1.1214,0,1.2299,1.2219,1.2158,1.2031,1.2003,1.1968,1.1875,1.182,1.1721,1.1667,1.1602,1.1521,1.1465,1.1416,1.1338,1.1332,1.1291,1.1242,1.1241,1.1228,1.1175,1.1241,1.1343,1.1348,1.1219,1.1219,1.1218,0,1.2413,1.229,1.2237,1.2192,1.2043,1.2021,1.1958,1.1857,1.1808,1.1727,1.1693,1.1607,1.1559,1.1494,1.1392,1.1365,1.1324,1.1266,1.1277,1.128,1.1272,1.1273,1.1367,1.1249,1.1249,1.1249,1.1249,0,1.2474,1.2441,1.2287,1.2254,1.2213,1.2099,1.2061,1.1988,1.19,1.1851,1.1751,1.1707,1.1575,1.1516,1.1436,1.1382,1.1362,1.1317,1.1296,1.1325,1.133,1.1295,1.1289,1.125,1.125,1.1249,1.1249,0,1.2594,1.2489,1.2424,1.2289,1.2254,1.223,1.2114,1.2078,1.1998,1.1938,1.1917,1.1791,1.1716,1.1608,1.15,1.1446,1.1404,1.1371,1.1438,1.1425,1.1442,1.1441,1.1514,1.1518,1.14,1.1401,1.1403,0,1.2639,1.261,1.2473,1.2433,1.2373,1.231,1.226,1.2146,1.2097,1.1983,1.1961,1.1878,1.1805,1.169,1.1589,1.1506,1.1469,1.1501,1.1456,1.1486,1.1468,1.147,1.1466,1.1511,1.1513,1.1514,1.1516,0,1.273,1.268,1.261,1.2523,1.2466,1.2392,1.2313,1.2286,1.2156,1.2106,1.2028,1.1972,1.1862,1.1781,1.1684,1.1618,1.1545,1.1531,1.1529,1.1557,1.1597,1.1574,1.1465,1.1529,1.1528,1.1527,1.1526,1.1526,1.2812,1.2781,1.268,1.2606,1.2535,1.2464,1.2423,1.2339,1.2272,1.2173,1.2111,1.2036,1.1937,1.18,1.1738,1.1678,1.1647,1.1645,1.1644,1.1645,1.1654,1.1608,1.166,1.1659,1.1659,1.1658,1.1658,0,1.2896,1.2826,1.2759,1.2652,1.2594,1.2532,1.2441,1.2397,1.2332,1.2247,1.2178,1.2089,1.201,1.1903,1.1816,1.1788,1.1753,1.1769,1.1769,1.1755,1.1687,1.1697,1.18,1.18,1.18,1.18,1.18,1.18,1.2933,1.2878,1.2816,1.2725,1.2654,1.258,1.2534,1.2468,1.2399,1.2304,1.2238,1.2169,1.2075,1.198,1.1905,1.1876,1.1848,1.1875,1.1835,1.1773,1.176,1.1748,1.1756,1.187,1.187,1.1908,1.1908,1.1909]}]]